[[{"header":{"parameterUnit":"m.s-1","parameterCategory":1,"la1":30.2992,"la2":30.254,"lo1":-89.0895,"lo2":-89.0443,"dy":0.0025,"dx":0.0025,"nx":19,"ny":19,"refTime":"2026-05-24T09:00:00:Z","depth":0,"parameterNumber":2,"parameterNumberName":"U-component_of_WINDS"},"data":[0,0,0,-3.8858,-3.8859,-3.8925,-3.8926,-3.9027,-3.9028,0,0,0,0,0,0,0,0,0,0,0,-3.8848,-3.8849,-3.8858,-3.886,-3.8925,-3.8926,-3.9027,-3.9028,0,0,0,0,0,0,0,0,0,0,0,-3.8848,-3.8849,-3.885,-3.886,-3.8925,-3.8926,-3.9026,-3.8971,0,0,0,0,0,0,0,0,0,0,-3.8904,-3.8905,-3.8849,-3.8851,-3.886,-3.8925,-3.8926,-3.8968,-3.8974,-3.9004,0,-3.9033,0,-3.9032,-3.9036,-3.9036,0,0,0,-3.8852,-3.89,-3.8908,-3.8851,-3.8861,-3.8925,-3.8894,-3.8971,-3.8978,-3.9013,-3.9035,-3.9038,-3.9034,-3.9037,-3.9037,-3.9231,-3.9232,0,0,-3.8849,-3.8866,-3.8903,-3.8913,-3.8904,-3.8892,-3.8896,-3.8975,-3.9001,-3.9035,-3.904,-3.9036,-3.9037,-3.9038,-3.923,-3.9231,0,0,0,-3.8843,-3.8864,-3.887,-3.891,-3.892,-3.8894,-3.8898,-3.8997,-3.8997,-3.9041,-3.9037,-3.9038,-3.9039,-3.9228,-3.923,-3.9306,0,0,0,-3.884,-3.8861,-3.8869,-3.888,-3.8919,-3.896,-3.8919,-3.8992,-3.9,-3.9036,-3.9038,-3.9041,-3.9227,-3.9229,-3.9301,-3.934,0,0,0,-3.8841,-3.8861,-3.8874,-3.8881,-3.891,-3.8958,-3.8963,-3.8993,-3.8998,-3.9036,-3.9041,-3.9226,-3.9229,-3.9297,-3.9332,-3.9393,0,0,0,-3.8846,-3.8944,-3.8875,-3.8982,-3.891,-3.9005,-3.8962,-3.9033,-3.9075,-3.9039,-3.9227,-3.923,-3.9295,-3.9327,-3.9388,-3.9446,-3.9472,0,0,-3.8979,-3.896,-3.9021,-3.8962,-3.9073,-3.8994,-3.9116,-3.9139,-3.9128,-3.9197,-3.9202,-3.9303,-3.9332,-3.9392,-3.9616,-3.9637,0,0,0,-3.9069,-3.9113,-3.9139,-3.9178,-3.9196,-3.9214,-3.9216,-3.9224,-3.9281,-3.9167,-3.9342,-3.9359,-3.9393,-3.942,-3.9438,-3.9465,-3.9244,-3.9243,-3.9243,-3.9282,-3.9259,-3.9357,-3.9342,-3.9381,-3.938,-3.9409,-3.9419,-3.9388,-3.943,-3.9449,-3.9588,-3.962,-3.9633,-3.9662,-3.948,-3.948,-3.9481,-3.9481,-3.9471,-3.9528,-3.9481,-3.9559,-3.9534,-3.96,-3.9602,-3.9576,-3.9633,-3.9573,-3.9602,-3.9535,-3.9657,-3.968,-3.9486,-3.9485,-3.9485,-3.9484,-3.9484,-3.9606,-3.9629,-3.9636,-3.9687,-3.973,-3.9712,-3.9767,-3.9744,-3.9723,-3.9752,-3.9768,-3.9766,-3.976,-3.9761,-3.9762,-3.9762,-3.9763,-3.9763,-3.9763,-3.9743,-3.9747,-3.9796,-3.9821,-3.9841,-3.9864,-3.9862,-3.9881,-3.9897,-3.9875,-3.9875,-3.9838,-3.9674,-3.9631,-3.9771,-3.9769,-3.9768,-3.9768,-3.9767,-3.994,-3.989,-3.9966,-3.9986,-4.001,-4.0052,-4.0021,-4.0061,-4.0074,-4.0101,-4.0057,-3.9941,-3.992,-3.9906,-3.987,-4.0064,-4.0064,-4.0064,-4.0064,-4.0052,-4.0039,-4.0108,-4.014,-4.0169,-4.0148,-4.0231,-4.0229,-4.022,-4.0226,-4.0195,-4.0147,-4.0134,-4.0121,-4.0102,-4.0068,-4.0308,-4.0308,-4.0308,-4.017,-4.0158,-4.0234,-4.0222,-4.0238,-4.0253,-4.033,-4.0368,-4.0349,-4.0317,-4.023,-4.0219,-4.0141,-4.0118,-4.0084,-4.0055,-3.9993,0,0]},{"header":{"parameterUnit":"m.s-1","parameterCategory":1,"la1":30.2992,"la2":30.254,"lo1":-89.0895,"lo2":-89.0443,"dy":0.0025,"dx":0.0025,"nx":19,"ny":19,"refTime":"2026-05-24T09:00:00:Z","depth":0,"parameterNumber":3,"parameterNumberName":"V-component_of_WINDS"},"data":[0,0,0,2.9632,2.9639,2.9949,2.995,3.0343,3.0346,0,0,0,0,0,0,0,0,0,0,0,2.9535,2.9538,2.9632,2.964,2.9949,2.995,3.0342,3.0346,0,0,0,0,0,0,0,0,0,0,0,2.9534,2.9537,2.954,2.9641,2.9949,2.995,3.0341,3.011,0,0,0,0,0,0,0,0,0,0,2.981,2.9714,2.9536,2.954,2.9642,2.9948,2.995,3.0098,3.0124,3.02,0,3.0262,0,3.031,3.0372,3.0373,0,0,0,2.9645,2.9693,2.9781,2.9541,2.9645,2.9948,2.9811,3.0113,3.0142,3.0233,3.0268,3.0283,3.0317,3.0374,3.0376,3.0788,3.0789,0,0,2.9627,2.9589,2.9761,2.9799,2.9747,2.9801,2.982,3.013,3.0167,3.027,3.0292,3.0323,3.0377,3.038,3.0786,3.0788,0,0,0,2.9575,2.9577,2.9657,2.9783,2.9838,2.981,2.9832,3.0153,3.0183,3.0297,3.0328,3.0379,3.0384,3.0784,3.0787,3.0832,0,0,0,2.9565,2.9546,2.965,2.9629,2.9832,2.9999,2.9848,3.0161,3.0197,3.0326,3.0379,3.0387,3.0782,3.0786,3.0826,3.086,0,0,0,2.9517,2.9541,2.9583,2.9627,2.9758,2.9995,3.0042,3.017,3.0216,3.0373,3.0388,3.0781,3.0785,3.0822,3.0853,3.0957,0,0,0,2.9456,2.9621,2.9583,2.978,2.9755,3.0019,3.0041,3.024,3.038,3.0381,3.0783,3.0786,3.082,3.0848,3.0952,3.1038,3.107,0,0,2.9643,2.9642,2.976,2.9736,2.9996,2.9975,3.0244,3.041,3.0462,3.0677,3.0687,3.0828,3.0852,3.0956,3.1261,3.1286,0,0,0,2.9807,2.9891,2.9969,3.0098,3.0227,3.0341,3.0469,3.0531,3.0715,3.0563,3.0895,3.0911,3.0973,3.1016,3.1038,3.1094,3.0804,3.0804,3.0804,3.0017,3.0071,3.0272,3.0363,3.0489,3.0619,3.0727,3.0833,3.0854,3.0931,3.0995,3.1173,3.1222,3.1239,3.1297,3.1045,3.1045,3.1045,3.1045,3.0296,3.0425,3.0446,3.0647,3.0705,3.0876,3.1008,3.1016,3.1186,3.113,3.1188,3.1122,3.1264,3.1318,3.1049,3.1049,3.1048,3.1048,3.1047,3.0441,3.0512,3.0582,3.0774,3.0917,3.1006,3.1166,3.1214,3.126,3.1317,3.1391,3.139,3.1396,3.1348,3.1349,3.135,3.135,3.1351,3.1351,3.0563,3.064,3.0768,3.0917,3.1007,3.113,3.1262,3.1353,3.1465,3.1487,3.1488,3.1501,3.1267,3.1207,3.1361,3.1359,3.1358,3.1357,3.1356,3.0827,3.0774,3.0972,3.1061,3.124,3.1379,3.1437,3.1616,3.1698,3.1776,3.1777,3.1595,3.1599,3.1583,3.1534,3.1763,3.1763,3.1763,3.1764,3.0949,3.0954,3.1167,3.1306,3.1448,3.152,3.1744,3.1848,3.1948,3.2003,3.1976,3.1915,3.1896,3.1912,3.1888,3.1843,3.2146,3.2147,3.2147,3.1115,3.1136,3.1316,3.141,3.1554,3.1677,3.1889,3.205,3.2153,3.2164,3.2047,3.2031,3.1932,3.1898,3.1906,3.1868,3.1787,0,0]}]]